Regional Weather Roundup
Issued by NWS Raleigh/Durham, NC

Home | Current Version | Previous Version | Text Only | Print | Product List | Glossary On
Versions: 1 2 3 4 5 6 7 8 9 10 11 12 13 14 15 16 17 18 19 20 21 22 23 24 25 26 27 28 29 30 31 32 33 34 35 36 37 38 39 40 41 42 43 44 45 46 47 48 49 50
000
ASUS42 KRAH 161210
RWRRAH
NORTH CAROLINA WEATHER ROUNDUP
NATIONAL WEATHER SERVICE RALEIGH NC
800 AM EDT TUE SEP 16 2014

NOTE: "FAIR" INDICATES FEW OR NO CLOUDS BELOW 12,000 FEET WITH NO
SIGNIFICANT WEATHER AND/OR OBSTRUCTIONS TO VISIBILITY.

NCZ001-053-055-056-065-067-161300-
WESTERN NORTH CAROLINA

CITY           SKY/WX    TMP DP  RH WIND       PRES   REMARKS
ASHEVILLE      MOCLDY    65  63  93 NW10      30.14S
JEFFERSON      CLOUDY    64  58  82 W12G20    30.16S
MORGANTON      PTCLDY    63  63 100 CALM      30.12S FOG
HICKORY        MOCLDY    66  65  96 CALM      30.07S FOG
RUTHERFORDTON  MOCLDY    67  67  98 CALM      30.08F
MOUNT AIRY     FOG       63  61  93 CALM      30.10S VSB<1/4
BOONE          LGT RAIN  63  61  93 NW16G26   30.15S
$$

NCZ021-022-025-041-071-084-088-161300-
CENTRAL NORTH CAROLINA

CITY           SKY/WX    TMP DP  RH WIND       PRES   REMARKS
CHARLOTTE      CLOUDY    72  68  88 CALM      30.08R
GREENSBORO     PTSUNNY   69  66  90 NW3       30.07S
WINSTON-SALEM  CLOUDY    67  64  90 CALM      30.09R FOG
RALEIGH-DURHAM PTSUNNY   69  66  90 CALM      30.07R FOG
FORT BRAGG     CLOUDY    72  70  94 W8        30.06R
FAYETTEVILLE   CLOUDY    72  70  93 CALM      30.06R FOG
BURLINGTON     MOSUNNY   70  66  87 W3        30.07R
LAURINBURG     CLOUDY    72  70  93 CALM      30.07R FOG
$$

NCZ011-015-027-028-043-044-047-080-103-161300-
NORTHEASTERN NORTH CAROLINA

CITY           SKY/WX    TMP DP  RH WIND       PRES   REMARKS
ROCKY MT-WILSO CLOUDY    69  67  93 SW5       30.06S FOG
GREENVILLE     MOSUNNY   70  68  94 CALM      30.07S FOG
WASHINGTON     PTSUNNY   69  66  91 CALM      30.06S
ELIZABETH CITY MOSUNNY   69  67  93 SW3       30.05
MANTEO         PTSUNNY   72  66  81 SW5       30.05S
CAPE HATTERAS  PTSUNNY   70  68  93 NW3       30.06R
$$

NCZ078-087-090-091-093-098-101-161300-
SOUTHEASTERN NORTH CAROLINA

CITY           SKY/WX    TMP DP  RH WIND       PRES   REMARKS
LUMBERTON      CLOUDY    72  70  93 CALM      30.06R FOG
GOLDSBORO      MOSUNNY   69  69  99 CALM      30.04S
KINSTON        MOSUNNY   70  68  94 CALM      30.06S
KENANSVILLE    CLOUDY    70  68  94 CALM      30.07S FOG
NEW BERN       CLOUDY    72  67  84 CALM      30.06F
CHERRY POINT   PTSUNNY   71  68  90 N6        30.06S
BEAUFORT       PTSUNNY   73  68  84 NE5       30.05S
JACKSONVILLE   LGT RAIN  71  69  93 N6        30.05R FOG
WILMINGTON     CLOUDY    72  71  97 CALM      30.04S
$$




USA.gov is the U.S. government's official web portal to all federal, state and local government web resources and services.